Burlington, WI

6:46 PM CDT on September 22, 2017 (GMT -0500)
Burlington

Weather History for KBUU - November, 2013

Change the Weather History Date:

Thursday, November 7, 2013

  Actual Average (KENW) Record (KENW)
Temperature  
Mean Temperature 30 °F -  
Max Temperature 38 °F 48 °F 70 °F (1949)
Min Temperature 23 °F 32 °F 9 °F (1991)
Degree Days  
Heating Degree Days 34    
Moisture  
Dew Point 28 °F    
Average Humidity 84    
Maximum Humidity 96    
Minimum Humidity 74    
Precipitation  
Precipitation 0.00 in - - ()
Sea Level Pressure  
Sea Level Pressure 30.18 in    
Wind  
Wind Speed 6 mph (West)    
Max Wind Speed 12 mph    
Max Gust Speed 16 mph    
Visibility 10 miles    
Events      
Averages and records for this station are not official NWS values.
T = Trace of Precipitation, MM = Missing Value Source: NWS Daily Summary

Daily Weather History Graph

Daily Weather History Graph

Search for Another Location

Airport or City:

Trip Planner

Search our weather history database for the weather conditions in past years. The results will help you decide how hot, cold, wet, or windy it might be!

Date:

Astronomy

Nov. 07, 2013 Rise Set
Actual Time 6:34 AM CST 4:38 PM CST
Civil Twilight 6:05 AM CST 5:08 PM CST
Nautical Twilight 5:31 AM CST 5:41 PM CST
Astronomical Twilight 4:58 AM CST 6:14 PM CST
Moon 10:44 AM CST (11/7) 8:48 PM CST (11/7)
Length of Visible Light 11h 02m
Length of Day
10h 03m
Waxing Crescent, 23% of the Moon is Illuminated
Nov 7
Waxing Crescent
Nov 9
First Quarter
Nov 17
Full
Nov 25
Last Quarter
Dec 2
New

Hourly Weather History & Observations

Time (CST) Temp. Windchill Dew Point Humidity Pressure Visibility Wind Dir Wind Speed Gust Speed Precip Events Conditions
12:15 AM 29.7 °F 24.7 °F 24.6 °F 81% 30.15 in 10.0 mi WSW 4.6 mph - N/A   Clear
12:35 AM 28.0 °F 22.8 °F 24.8 °F 88% 30.16 in 10.0 mi WSW 4.6 mph - N/A   Clear
12:55 AM 29.8 °F 24.9 °F 24.6 °F 81% 30.16 in 10.0 mi West 4.6 mph - N/A   Clear
1:15 AM 30.2 °F 25.4 °F 24.8 °F 80% 30.16 in 10.0 mi West 4.6 mph - N/A   Clear
1:55 AM 30.2 °F 24.3 °F 25.3 °F 82% 30.16 in 10.0 mi West 5.8 mph - N/A   Clear
2:15 AM 30.0 °F 23.2 °F 25.5 °F 83% 30.17 in 10.0 mi West 6.9 mph - N/A   Clear
2:35 AM 29.3 °F 24.3 °F 25.5 °F 86% 30.17 in 10.0 mi West 4.6 mph - N/A   Clear
2:55 AM 29.3 °F 21.5 °F 25.3 °F 85% 30.16 in 10.0 mi West 8.1 mph - N/A   Clear
3:15 AM 29.3 °F 22.3 °F 25.3 °F 85% 30.17 in 10.0 mi West 6.9 mph - N/A   Clear
3:35 AM 29.3 °F 22.3 °F 25.3 °F 85% 30.17 in 10.0 mi West 6.9 mph - N/A   Clear
3:55 AM 29.3 °F 23.2 °F 24.8 °F 83% 30.17 in 10.0 mi West 5.8 mph - N/A   Clear
4:15 AM 28.9 °F 23.9 °F 24.6 °F 84% 30.18 in 10.0 mi West 4.6 mph - N/A   Clear
4:35 AM 28.9 °F 25.2 °F 24.4 °F 83% 30.18 in 10.0 mi West 3.5 mph - N/A   Clear
4:55 AM 27.5 °F 23.6 °F 24.1 °F 87% 30.17 in 10.0 mi WSW 3.5 mph - N/A   Clear
5:15 AM 25.7 °F 21.5 °F 23.5 °F 92% 30.17 in 10.0 mi SSW 3.5 mph - N/A   Clear
5:35 AM 25.0 °F 20.7 °F 23.5 °F 94% 30.18 in 10.0 mi WSW 3.5 mph - N/A   Clear
5:55 AM 27.5 °F 22.2 °F 24.1 °F 87% 30.18 in 10.0 mi West 4.6 mph - N/A   Clear
6:15 AM 27.3 °F - 23.9 °F 87% 30.18 in 10.0 mi Calm Calm - N/A   Clear
6:35 AM 25.7 °F - 23.2 °F 90% 30.19 in 10.0 mi Calm Calm - N/A   Clear
6:55 AM 23.9 °F 19.5 °F 22.8 °F 96% 30.19 in 10.0 mi South 3.5 mph - N/A   Clear
7:15 AM 25.9 °F 21.7 °F 24.4 °F 94% 30.19 in 10.0 mi South 3.5 mph - N/A   Clear
7:35 AM 28.4 °F - 25.7 °F 90% 30.19 in 10.0 mi Calm Calm - N/A   Clear
7:55 AM 30.0 °F - 26.1 °F 85% 30.19 in 10.0 mi Calm Calm - N/A   Clear
8:15 AM 32.2 °F 25.8 °F 26.4 °F 79% 30.20 in 10.0 mi West 6.9 mph - N/A   Clear
8:35 AM 33.8 °F 27.0 °F 27.5 °F 78% 30.20 in 10.0 mi West 8.1 mph - N/A   Clear
8:55 AM 34.9 °F 27.7 °F 28.4 °F 77% 30.20 in 10.0 mi West 9.2 mph - N/A   Clear
9:15 AM 34.5 °F 27.9 °F 28.4 °F 78% 30.20 in 10.0 mi West 8.1 mph - N/A   Clear
9:35 AM 35.1 °F 27.4 °F 29.1 °F 79% 30.20 in 10.0 mi West 10.4 mph - N/A   Mostly Cloudy
9:55 AM 36.7 °F 30.5 °F 29.5 °F 75% 30.19 in 10.0 mi West 8.1 mph 16.1 mph N/A   Mostly Cloudy
10:15 AM 36.3 °F 30.1 °F 30.7 °F 80% 30.19 in 10.0 mi WSW 8.1 mph - N/A   Overcast
10:35 AM 36.0 °F 28.5 °F 29.8 °F 78% 30.20 in 10.0 mi West 10.4 mph - N/A   Overcast
10:55 AM 36.1 °F 28.2 °F 30.6 °F 80% 30.20 in 10.0 mi WSW 11.5 mph - N/A   Overcast
11:15 AM 36.9 °F 29.1 °F 29.8 °F 76% 30.20 in 10.0 mi WSW 11.5 mph - N/A   Overcast
11:35 AM 36.7 °F 30.5 °F 29.5 °F 75% 30.19 in 10.0 mi WSW 8.1 mph - N/A   Overcast
11:55 AM 36.1 °F 31.4 °F 28.9 °F 75% 30.19 in 10.0 mi West 5.8 mph - N/A   Overcast
12:15 PM 35.8 °F 28.3 °F 28.2 °F 74% 30.18 in 10.0 mi West 10.4 mph - N/A   Overcast
12:35 PM 35.2 °F 27.6 °F 28.4 °F 76% 30.18 in 10.0 mi West 10.4 mph - N/A   Overcast
12:55 PM 35.2 °F 28.8 °F 28.8 °F 77% 30.17 in 10.0 mi West 8.1 mph - N/A   Overcast
1:15 PM 35.8 °F 28.3 °F 29.5 °F 78% 30.17 in 10.0 mi WSW 10.4 mph - N/A   Overcast
1:35 PM 37.4 °F 30.3 °F 30.4 °F 76% 30.17 in 10.0 mi West 10.4 mph - N/A   Scattered Clouds
1:55 PM 37.8 °F 31.3 °F 30.6 °F 75% 30.16 in 10.0 mi WSW 9.2 mph - N/A   Clear
2:15 PM 38.7 °F 31.8 °F 30.9 °F 74% 30.17 in 10.0 mi West 10.4 mph - N/A   Mostly Cloudy
3:15 PM 38.5 °F 33.4 °F 30.9 °F 74% 30.16 in 10.0 mi West 6.9 mph - N/A   Scattered Clouds
3:35 PM 37.8 °F 33.3 °F 31.3 °F 77% 30.15 in 10.0 mi WSW 5.8 mph - N/A   Scattered Clouds
3:55 PM 37.8 °F 32.5 °F 31.1 °F 77% 30.16 in 10.0 mi WSW 6.9 mph - N/A   Scattered Clouds
4:35 PM 35.2 °F 30.3 °F 30.9 °F 84% 30.17 in 10.0 mi WSW 5.8 mph - N/A   Clear
4:55 PM 33.4 °F 27.3 °F 30.2 °F 88% 30.17 in 10.0 mi SW 6.9 mph - N/A   Scattered Clouds
5:15 PM 32.9 °F 27.5 °F 30.2 °F 90% 30.17 in 10.0 mi WSW 5.8 mph - N/A   Scattered Clouds
5:35 PM 33.4 °F 28.1 °F 30.2 °F 88% 30.18 in 10.0 mi WSW 5.8 mph - N/A   Mostly Cloudy
5:55 PM 33.3 °F 27.9 °F 30.4 °F 89% 30.18 in 10.0 mi WSW 5.8 mph - N/A   Mostly Cloudy
6:15 PM 32.9 °F 27.5 °F 30.2 °F 90% 30.19 in 10.0 mi WSW 5.8 mph - N/A   Mostly Cloudy
6:35 PM 32.5 °F 27.1 °F 30.2 °F 91% 30.19 in 10.0 mi WSW 5.8 mph - N/A   Mostly Cloudy
6:55 PM 32.2 °F 26.7 °F 30.0 °F 92% 30.19 in 10.0 mi WSW 5.8 mph - N/A   Scattered Clouds
7:35 PM 33.8 °F 26.4 °F 30.7 °F 89% 30.18 in 10.0 mi WSW 9.2 mph - N/A   Overcast
7:55 PM 33.8 °F 26.4 °F 30.7 °F 89% 30.17 in 10.0 mi SW 9.2 mph - N/A   Overcast
8:15 PM 34.0 °F 28.0 °F 30.7 °F 88% 30.17 in 10.0 mi WSW 6.9 mph - N/A   Overcast
8:35 PM 34.2 °F 29.0 °F 30.6 °F 87% 30.17 in 10.0 mi WSW 5.8 mph - N/A   Overcast
8:55 PM 34.3 °F 28.4 °F 30.9 °F 87% 30.17 in 10.0 mi WSW 6.9 mph - N/A   Overcast
9:15 PM 34.7 °F 29.6 °F 30.2 °F 84% 30.18 in 10.0 mi West 5.8 mph - N/A   Overcast
9:35 PM 33.8 °F 29.6 °F 30.2 °F 87% 30.18 in 10.0 mi West 4.6 mph - N/A   Mostly Cloudy
9:55 PM 32.9 °F 25.9 °F 30.0 °F 89% 30.19 in 10.0 mi West 8.1 mph - N/A   Scattered Clouds
10:15 PM 33.4 °F 27.3 °F 30.2 °F 88% 30.19 in 10.0 mi WNW 6.9 mph - N/A   Mostly Cloudy
10:35 PM 33.8 °F 27.7 °F 30.4 °F 87% 30.20 in 10.0 mi WNW 6.9 mph - N/A   Overcast
10:55 PM 32.4 °F 26.0 °F 29.8 °F 90% 30.20 in 10.0 mi NW 6.9 mph - N/A   Mostly Cloudy
11:15 PM 32.7 °F 27.3 °F 28.9 °F 86% 30.21 in 10.0 mi WNW 5.8 mph - N/A   Mostly Cloudy
11:35 PM 32.0 °F 24.8 °F 28.0 °F 85% 30.21 in 10.0 mi NNW 8.1 mph - N/A   Scattered Clouds
11:55 PM 31.8 °F 23.9 °F 27.3 °F 83% 30.22 in 10.0 mi NNW 9.2 mph - N/A   Clear